Change the Weather History Date:

Tuesday, December 24, 2013

  Actual Average Record
Temperature  
Mean Temperature 68 °F -  
Max Temperature 77 °F 74 °F 80 °F (2004)
Min Temperature 60 °F 60 °F 57 °F (1998)
Cooling Degree Days 4    
Growing Degree Days 18 (Base 50)    
Moisture  
Dew Point 56 °F    
Average Humidity 64    
Maximum Humidity 88    
Minimum Humidity 47    
Precipitation  
Precipitation 0.00 in - - ()
Sea Level Pressure  
Sea Level Pressure 30.11 in    
Wind  
Wind Speed 7 mph ()    
Max Wind Speed 17 mph    
Max Gust Speed -    
Visibility 6.2 miles    
Events      
Averages and records for this station are not official NWS values.
T = Trace of Precipitation, MM = Missing Value Source: Averaged Metar Reports

Daily Weather History Graph

Daily Weather History Graph

Search for Another Location

Airport or City:

Trip Planner

Search our weather history database for the weather conditions in past years. The results will help you decide how hot, cold, wet, or windy it might be!

Date:

Astronomy

Dec. 24, 2013 Rise Set
Actual Time 6:26 AM EAT 6:38 PM EAT
Civil Twilight 6:03 AM EAT 7:00 PM EAT
Nautical Twilight 5:37 AM EAT 7:27 PM EAT
Astronomical Twilight 5:11 AM EAT 7:53 PM EAT
Moon 11:55 PM EAT (12/24) 11:32 AM EAT (12/24)
Length of Visible Light 12h 57m
Length of Day
12h 12m
Waning Gibbous, 62% of the Moon is Illuminated
Dec 24
Waning Gibbous
Dec 25
Last Quarter
Jan 1
New
Jan 8
First Quarter
Jan 16
Full

Hourly Weather History & Observations

Time (EAT) Temp. Dew Point Humidity Pressure Visibility Wind Dir Wind Speed Gust Speed Precip Events Conditions
12:00 AM 66.2 °F 59.0 °F 78% 30.15 in 6.2 mi North 4.6 mph - N/A   Partly Cloudy
2:00 AM 64.4 °F 59.0 °F 83% 30.09 in 6.2 mi NE 3.5 mph - N/A   Partly Cloudy
3:00 AM 64.4 °F 59.0 °F 83% 30.09 in - NE 3.5 mph - N/A   Clear
5:00 AM 62.6 °F 57.2 °F 82% 30.09 in - Calm Calm - N/A   Clear
6:00 AM 60.8 °F 57.2 °F 88% 30.15 in - Calm Calm - N/A   Clear
7:00 AM 60.8 °F 55.4 °F 82% 30.12 in - Calm Calm - N/A   Scattered Clouds
8:00 AM 66.2 °F 55.4 °F 68% 30.15 in 6.2 mi North 6.9 mph - N/A   Partly Cloudy
9:00 AM 68.0 °F 55.4 °F 64% 30.15 in 6.2 mi NNE 17.3 mph - N/A   Partly Cloudy
10:00 AM 69.8 °F 53.6 °F 56% 30.15 in 6.2 mi NE 17.3 mph - N/A   Partly Cloudy
11:00 AM 71.6 °F 53.6 °F 53% 30.15 in 6.2 mi East 17.3 mph - N/A   Scattered Clouds
12:00 PM 73.4 °F 53.6 °F 50% 30.12 in 6.2 mi East 9.2 mph - N/A   Scattered Clouds
1:00 PM 75.2 °F 53.6 °F 47% 30.12 in 6.2 mi ENE 17.3 mph - N/A   Scattered Clouds
2:00 PM 75.2 °F 53.6 °F 47% 30.12 in 6.2 mi East 11.5 mph - N/A   Scattered Clouds
3:00 PM 77.0 °F 59.0 °F 54% 30.06 in 6.2 mi NE 11.5 mph - N/A   Scattered Clouds
4:00 PM 77.0 °F 57.2 °F 50% 30.04 in 6.2 mi ENE 11.5 mph - N/A   Mostly Cloudy
5:00 PM 77.0 °F 57.2 °F 50% 30.04 in 6.2 mi East 13.8 mph - N/A   Mostly Cloudy
6:00 PM 75.2 °F 55.4 °F 50% 30.06 in 6.2 mi East 11.5 mph - N/A   Scattered Clouds
7:00 PM 71.6 °F 53.6 °F 53% 30.06 in 6.2 mi East 11.5 mph - N/A   Mostly Cloudy
8:00 PM 69.8 °F 55.4 °F 60% 30.12 in 6.2 mi ENE 17.3 mph - N/A   Mostly Cloudy
9:00 PM 68.0 °F 57.2 °F 68% 30.12 in 6.2 mi NE 17.3 mph - N/A   Mostly Cloudy
10:00 PM 68.0 °F 57.2 °F 68% 30.12 in 6.2 mi ENE 5.8 mph - N/A   Mostly Cloudy
11:00 PM 66.2 °F 57.2 °F 73% 30.12 in 6.2 mi East 11.5 mph - N/A   Mostly Cloudy